Dewpoint
46 49 53 46 28 19 14 12 12 13 16 27 27 17 18 37 41 24 26 24 30 35 39 51 60 66 69 69 70 72 71 71 71 71 71 70 70 70 70 70 69 69 69 68 69 68 69 69 69
46 52 47 37 17 11 11 13 14 17 26 26 27 26 19 29 26 25 19 21 28 35 38 49 60 66 69 69 70 71 71 71 71 71 71 70 70 70 70 69 69 69 69 69 69 69 69 69 69
51 51 37 23 19 11 7 20 21 21 25 24 26 30 25 22 19 16 16 18 22 33 37 46 57 61 66 68 69 70 71 71 70 71 70 70 70 70 69 69 69 69 69 69 69 69 69 69 68
48 41 30 21 11 12 14 19 15 19 25 27 23 23 18 19 18 17 16 16 18 28 34 42 54 55 61 68 68 70 70 70 70 71 70 71 70 70 69 69 69 69 69 69 69 69 68 69 68
45 37 23 19 16 11 20 14 15 17 18 20 21 22 24 21 19 18 17 16 17 22 33 40 48 51 55 61 68 68 70 71 71 71 70 70 70 69 69 69 69 69 69 68 68 68 68 68 67
36 30 17 10 7 16 17 12 13 15 15 16 15 16 25 24 14 15 16 17 19 21 32 39 41 47 49 54 61 66 69 70 71 70 70 70 70 70 70 69 69 68 68 68 68 68 68 68 67
27 24 20 9 6 9 15 13 12 14 15 16 14 16 23 23 12 13 15 17 20 21 25 38 42 43 44 48 56 58 66 70 68 69 68 69 70 70 70 69 69 68 68 68 68 67 67 67 66
34 26 12 9 16 15 13 11 13 11 11 13 13 16 15 11 9 13 16 18 20 22 22 36 40 43 43 46 48 54 59 65 67 68 68 69 69 69 69 69 68 68 68 68 67 67 66 66 65
32 19 12 14 16 13 11 7 1 1 -4 -3 -0 1 2 4 9 14 15 17 20 21 23 25 39 41 44 44 46 50 54 58 67 66 68 69 68 68 68 67 67 67 68 67 67 67 66 65 63
23 18 16 12 10 6 2 -2 -4 -5 -7 -7 -7 -7 -0 7 10 13 15 17 18 20 22 26 35 40 43 44 45 46 50 53 64 65 68 67 66 66 66 67 67 67 67 67 67 65 64 62 61
4 6 6 3 2 4 -0 -2 -2 -4 -3 -3 -2 -1 4 7 9 13 16 18 19 20 21 24 29 37 42 44 44 45 48 51 54 64 67 65 65 66 66 67 67 66 66 65 64 63 61 60 59
-0 -2 0 1 3 3 2 3 0 -1 -0 1 1 3 4 5 7 13 16 18 18 18 19 23 26 31 40 43 43 44 45 48 50 53 65 64 65 65 66 66 66 65 64 63 63 62 60 58 57
0 2 3 2 3 4 3 3 3 2 3 3 3 3 6 8 9 14 15 16 17 17 19 20 22 26 35 38 42 44 44 45 48 51 52 65 65 65 65 65 64 64 63 62 61 59 58 57 57
4 4 4 3 4 4 4 4 4 3 3 5 6 6 8 10 13 13 13 13 15 16 17 19 20 22 28 36 40 42 43 45 46 49 51 65 64 64 64 64 63 62 62 60 59 58 57 57 56
3 3 5 4 3 4 6 4 5 3 3 4 6 9 11 12 11 10 12 12 14 15 16 17 18 20 24 32 37 41 43 44 45 47 50 55 64 64 64 62 62 61 60 59 58 57 56 55 55
-0 3 -4 0 3 5 5 5 5 4 3 6 8 8 9 10 10 10 10 11 12 13 15 17 19 21 22 28 35 38 43 43 45 47 49 53 62 64 62 61 60 60 59 58 57 55 54 54 54
-3 -6 -5 -4 4 4 4 3 5 5 5 6 7 8 9 10 9 8 8 9 11 12 14 16 18 19 21 25 33 38 42 44 45 47 48 52 62 63 61 61 60 59 58 56 55 54 53 52 51
-6 -2 -1 0 2 4 4 5 5 2 7 7 7 7 8 8 8 8 8 9 11 12 14 16 17 19 21 24 30 36 39 43 46 47 48 50 52 61 61 60 59 57 56 55 54 53 52 50 47
-0 0 2 5 4 4 5 5 4 -0 4 7 7 7 7 7 7 8 9 10 11 13 14 15 16 18 20 22 24 33 35 40 42 46 47 48 50 58 61 59 58 57 55 54 53 52 49 47 43
-2 0 5 3 4 4 5 3 1 2 3 6 6 6 6 7 7 9 9 9 11 13 14 15 16 18 20 22 24 29 34 37 40 44 45 48 50 57 59 57 56 55 54 53 52 50 47 45 47
-2 2 1 1 3 7 5 4 -1 3 5 7 8 8 6 6 8 9 9 10 11 13 14 15 16 18 20 21 24 27 32 37 39 41 45 47 48 52 58 56 55 54 53 51 50 48 47 47 48
-0 2 3 3 4 10 3 2 -2 -4 2 2 2 3 4 6 10 9 9 11 12 13 14 16 17 18 19 21 22 24 28 32 37 42 45 46 47 50 52 56 54 53 52 51 49 48 49 49 47
3 5 4 4 5 9 7 6 5 -4 -6 -5 -2 2 5 10 9 8 10 12 13 13 14 15 16 17 19 20 22 25 26 32 36 39 43 44 47 50 53 56 54 52 51 50 49 49 49 49 47
6 7 7 2 2 7 4 1 0 -1 -3 -4 -0 3 7 6 7 9 11 13 14 14 15 15 15 17 18 20 22 24 26 29 34 38 41 44 47 49 56 57 54 52 51 50 49 50 50 48 48
9 7 -1 -2 5 -5 2 -3 4 5 -2 0 2 2 1 5 7 10 12 14 14 14 14 14 14 16 16 18 22 24 25 27 32 35 41 43 46 49 57 57 53 52 50 50 50 50 50 48 47
9 8 2 -4 -10 -6 -3 -2 3 -1 -2 -0 3 2 2 5 9 11 13 15 15 13 13 13 13 14 17 18 21 23 25 28 31 35 40 44 46 49 52 56 53 51 50 50 50 50 49 48 47
6 5 6 5 0 0 -3 -2 -0 -2 -2 -1 4 3 6 8 10 12 13 14 15 14 13 13 14 16 18 18 20 22 24 27 30 35 40 43 47 48 50 55 52 51 50 49 49 49 48 48 47
9 10 3 3 -2 -5 -9 -5 -5 7 5 7 6 6 8 11 13 13 14 14 14 14 13 16 16 16 17 18 19 21 25 28 30 34 40 43 46 48 49 51 54 51 50 49 49 49 48 47 47
5 5 3 6 2 -2 -5 -6 7 8 12 8 8 9 11 14 14 14 15 15 13 13 16 15 16 16 17 19 20 22 25 27 30 35 40 42 46 47 48 54 55 50 50 49 49 48 48 47 45
14 8 6 2 -0 -1 1 0 5 8 9 9 9 11 14 15 15 16 15 14 14 15 13 15 16 18 19 21 22 23 25 29 31 34 40 42 45 47 48 50 55 52 50 49 48 47 47 46 43
Wind_Speed
15 5 3 4 6 8 15 13 13 10 6 9 9 8 9 13 7 0 11 23 23 24 28 29 33 31 18 21 23 22 21 20 20 21 22 23 22 22 22 21 21 21 22 23 24 23 25 24 25
12 3 4 2 8 16 18 18 15 8 8 10 7 7 10 5 10 6 12 25 22 22 25 27 33 29 15 22 24 23 23 21 21 21 22 22 23 22 22 21 20 20 22 22 23 23 25 26 24
7 4 5 5 11 20 18 10 10 12 6 10 6 7 6 5 12 6 17 22 22 20 22 25 34 34 26 23 24 25 26 23 21 21 22 22 22 23 22 21 20 20 22 22 22 23 24 25 22
3 5 4 9 20 16 13 5 10 11 2 6 10 5 8 11 5 13 18 20 21 19 21 25 32 34 31 16 24 26 26 25 23 22 23 22 22 22 22 21 21 21 21 22 23 23 23 24 22
6 4 10 11 17 17 7 9 13 12 9 9 11 7 4 6 12 17 20 20 21 20 22 24 30 32 33 26 15 26 27 25 25 24 24 24 22 22 23 22 22 24 24 23 23 25 24 23 24
7 5 10 18 18 4 7 12 11 9 11 12 10 13 1 10 19 21 22 21 21 22 19 22 24 30 31 30 23 14 29 27 27 25 25 23 23 24 24 24 25 24 25 24 25 25 25 23 21
4 9 15 20 19 13 5 10 7 11 12 9 13 11 3 8 21 22 21 20 19 21 19 19 23 25 30 28 26 26 15 32 30 27 25 24 23 25 26 25 26 27 27 26 26 25 26 24 20
5 4 9 6 7 3 6 10 5 11 10 14 5 4 10 17 24 22 21 19 19 20 23 17 21 20 22 24 27 28 23 14 29 29 25 23 25 25 26 25 26 27 28 27 27 27 26 22 19
3 6 11 8 4 5 7 11 12 11 16 13 11 15 12 17 20 21 20 19 20 20 22 21 20 20 20 20 23 26 25 28 18 26 25 25 22 24 27 25 28 27 28 28 29 29 26 22 23
4 6 5 3 5 10 13 12 13 11 14 15 15 11 18 18 17 19 21 21 21 22 21 20 17 18 17 17 19 20 20 19 11 21 22 23 23 22 23 24 27 29 29 29 30 29 28 25 18
5 4 4 2 4 8 11 13 11 11 16 13 17 18 18 15 15 17 19 19 20 20 18 20 19 17 18 15 16 16 16 15 16 15 24 23 21 22 20 21 23 24 27 22 23 26 20 20 16
3 1 4 3 6 7 10 13 14 16 17 16 15 15 14 18 18 17 18 19 19 19 18 19 19 16 14 14 12 14 15 15 15 15 19 22 20 21 21 22 23 24 20 22 23 18 18 16 14
4 5 6 6 8 10 11 15 17 19 13 10 14 13 19 18 16 15 14 15 17 17 18 18 18 16 13 13 11 11 13 16 16 17 27 23 22 21 23 23 22 20 21 23 17 17 17 16 16
7 10 11 5 7 9 12 15 15 12 4 12 15 18 18 14 11 11 13 15 16 18 19 19 18 16 15 15 12 10 14 11 12 17 23 25 24 23 24 23 22 23 22 18 18 17 18 16 16
7 9 8 3 5 11 11 18 6 5 12 15 17 13 10 9 9 11 14 16 17 18 20 19 19 17 16 13 14 11 9 14 14 17 15 17 28 26 24 24 25 23 22 23 20 19 18 17 18
6 4 13 1 7 3 6 14 11 8 14 13 7 5 6 6 8 11 14 17 18 20 21 20 19 19 17 12 11 12 9 9 14 12 18 16 18 28 26 27 24 22 23 23 21 22 20 20 19
2 16 18 15 8 7 6 17 14 15 8 4 3 4 6 8 9 13 16 19 21 20 21 21 20 19 18 15 12 15 14 11 10 14 18 15 15 26 30 26 26 25 24 24 23 22 22 24 20
16 21 18 22 9 14 20 28 17 8 2 5 4 5 6 8 11 14 20 24 26 22 19 20 18 18 18 16 10 12 11 7 6 11 13 14 16 27 31 26 27 27 25 24 23 24 21 23 22
16 22 28 25 18 18 22 28 17 6 9 9 8 6 8 10 13 18 26 27 24 22 19 20 19 18 16 15 13 12 13 10 9 11 12 13 20 21 33 27 27 27 27 27 28 26 28 24 23
22 28 18 13 9 27 17 23 15 8 9 9 6 6 8 12 16 26 30 27 25 22 21 19 20 18 16 15 13 11 10 12 13 14 11 14 17 12 33 30 28 28 26 27 29 31 26 22 22
25 14 18 25 34 14 12 12 9 9 7 6 5 7 10 12 20 29 30 29 26 24 22 20 22 20 18 18 15 13 12 13 10 13 16 7 13 16 24 34 29 28 28 30 30 30 34 29 18
19 18 28 29 18 6 6 7 9 10 8 9 5 6 12 18 27 31 30 27 27 26 24 22 22 22 19 18 17 16 15 13 10 14 7 12 10 16 17 35 33 31 27 29 29 28 30 31 28
11 32 30 22 10 10 4 6 6 8 6 1 6 8 16 24 31 32 31 29 28 27 25 24 23 23 21 20 20 18 17 16 14 13 15 11 12 13 12 29 35 33 28 28 30 29 29 27 30
23 26 18 4 5 6 6 7 9 4 2 9 10 16 22 29 31 32 31 31 28 25 25 23 24 25 23 21 22 22 22 18 15 15 12 9 10 13 7 25 35 33 31 31 29 30 30 26 26
23 23 10 5 4 14 8 11 11 7 5 4 9 25 33 31 32 32 33 29 28 29 27 25 25 24 24 23 22 23 23 21 20 18 16 10 11 8 11 27 35 32 31 30 28 29 28 27 28
12 11 7 9 13 23 28 9 3 3 1 4 14 33 32 33 31 34 31 29 29 29 28 28 27 27 25 24 24 23 24 19 20 18 16 13 15 7 7 28 33 34 33 31 29 26 24 26 25
7 9 5 8 12 12 9 14 18 5 4 15 34 35 36 35 35 35 32 29 29 31 30 29 28 26 27 26 24 24 23 23 21 20 18 16 12 7 11 12 32 36 34 34 32 26 26 25 25
3 5 5 6 9 12 13 23 10 15 16 30 39 40 40 38 39 36 34 32 29 29 28 26 29 28 27 26 25 24 24 23 22 20 20 19 15 11 8 14 28 36 35 35 33 27 25 26 23
3 3 5 4 6 7 14 11 9 14 15 42 42 42 43 46 44 40 36 34 31 29 28 26 27 26 25 26 25 25 25 24 23 21 23 22 18 14 15 14 25 34 37 35 32 29 27 27 25
1 3 2 5 3 15 20 22 13 8 36 40 42 42 47 44 45 41 37 35 32 30 29 28 25 25 24 25 25 26 25 25 25 24 24 21 21 16 13 4 24 30 37 36 35 33 30 30 28
Wind_Direction
323 315 276 232 238 234 255 243 238 267 254 20 320 284 357 37 2 3 350 360 356 359 351 350 341 332 258 196 180 168 164 166 163 156 151 151 147 143 139 135 132 132 130 127 122 119 115 114 109
312 298 224 240 245 247 257 245 231 278 7 330 289 282 255 93 26 61 7 347 353 2 353 351 348 346 282 206 185 174 168 171 163 159 156 154 150 147 143 140 137 133 126 124 120 119 115 110 108
292 266 241 227 240 251 276 24 2 349 339 3 318 56 11 39 57 19 356 344 346 9 356 351 358 357 350 218 191 177 174 171 167 164 160 155 152 149 147 142 136 131 126 124 123 121 115 113 113
271 200 246 249 252 261 271 42 347 326 275 28 343 275 96 46 43 3 350 348 350 15 359 359 360 0 359 283 201 185 179 171 169 167 164 158 156 151 145 140 138 132 130 127 124 119 116 115 114
234 255 242 238 261 275 83 12 334 308 309 330 343 348 57 98 26 360 349 349 353 6 2 360 4 360 360 357 254 197 181 174 170 169 166 160 156 150 143 142 136 134 131 128 126 122 119 120 122
254 300 259 268 280 12 78 9 336 322 322 315 345 325 16 105 13 356 347 349 350 352 13 0 5 1 360 2 1 277 191 179 173 171 167 164 158 151 145 142 139 136 131 130 128 124 122 120 122
268 268 267 287 293 279 49 357 349 324 312 325 333 304 314 66 359 346 342 344 351 350 5 9 358 1 359 358 360 351 269 186 176 171 168 164 158 151 147 144 142 138 133 132 130 126 122 121 120
294 272 276 284 311 312 30 341 344 320 302 326 340 292 304 357 346 343 342 345 352 352 352 16 2 2 0 352 353 346 346 296 181 174 166 167 154 151 149 147 144 138 135 133 127 123 121 120 110
309 249 277 332 340 333 343 332 314 324 291 299 297 290 322 342 339 341 344 348 351 352 350 358 3 358 354 356 351 345 351 347 211 178 168 158 160 160 154 155 149 139 135 131 128 124 121 119 115
334 272 7 1 333 311 316 315 315 306 304 296 295 311 335 338 339 341 342 342 346 348 347 353 5 353 353 360 351 347 344 341 284 181 171 173 168 168 165 151 145 140 133 130 126 125 130 127 126
2 319 353 350 318 317 302 300 307 287 285 312 317 317 321 316 339 341 337 337 339 341 341 342 348 359 350 353 353 347 347 340 328 238 180 180 173 165 154 151 146 138 134 129 129 138 142 137 142
264 358 310 301 307 298 296 312 288 281 290 308 302 317 315 313 324 339 335 335 337 340 344 342 343 354 348 346 349 339 347 336 315 306 217 181 168 166 157 157 152 145 144 142 149 153 143 135 123
356 327 292 290 293 291 285 288 282 289 302 331 316 302 309 311 318 339 343 338 340 342 346 344 343 344 354 338 338 335 321 333 323 321 323 179 166 167 161 159 151 146 146 146 153 143 132 129 122
325 302 290 285 303 306 299 293 287 268 313 322 316 308 312 319 346 334 346 344 342 339 340 338 340 342 345 333 334 337 322 291 323 317 311 187 166 166 165 154 147 149 148 144 138 136 130 123 124
304 306 284 195 286 312 329 290 217 283 285 323 318 342 343 7 347 351 346 340 338 334 332 333 330 334 332 336 322 317 301 310 333 318 312 296 169 167 156 149 157 151 149 141 139 134 129 121 114
308 263 331 65 350 5 338 288 309 345 316 311 336 354 360 3 348 350 341 336 334 327 325 325 323 322 322 325 315 299 280 303 284 299 322 276 198 164 152 158 156 155 148 143 145 139 131 124 118
229 321 318 323 281 310 266 293 297 311 326 298 311 341 342 335 339 341 338 333 327 322 319 317 317 315 318 317 322 314 310 292 313 327 302 342 214 163 159 161 158 155 149 149 145 141 137 126 119
316 322 305 304 291 316 296 288 303 304 210 228 233 267 306 319 330 331 332 331 324 319 314 312 310 310 312 310 308 301 301 286 309 273 309 321 343 172 162 162 161 155 150 153 145 143 133 127 125
313 305 304 303 313 311 297 294 289 279 198 212 227 266 308 320 324 324 335 332 325 318 317 311 309 306 307 306 309 315 307 314 313 306 296 300 299 233 163 162 163 158 157 156 150 140 138 131 130
318 317 314 312 311 319 301 293 285 205 199 207 231 267 309 314 320 332 333 330 323 315 312 308 305 302 298 296 294 287 293 302 289 305 291 300 314 304 160 163 162 161 155 157 153 146 139 141 158
327 313 318 308 316 296 307 274 176 193 198 210 240 259 282 316 325 333 328 325 319 313 310 306 301 296 291 288 287 280 269 271 279 277 268 297 296 286 187 163 159 159 159 157 155 152 149 152 156
319 341 313 308 318 305 354 296 259 172 210 207 249 283 325 320 327 330 325 320 315 309 306 299 294 291 287 282 277 270 268 264 252 260 265 265 300 291 340 163 161 160 161 160 158 157 155 153 155
289 314 306 304 280 308 185 285 268 166 233 277 342 341 330 320 329 327 323 321 313 305 302 298 289 286 282 276 268 265 254 250 246 260 253 263 272 292 260 182 163 162 161 162 158 160 162 161 161
321 317 303 265 251 271 113 7 277 236 358 320 345 343 324 330 329 325 323 318 310 306 299 293 289 283 277 271 263 258 257 254 261 257 248 243 280 286 252 195 164 164 163 162 165 164 164 163 165
358 354 355 326 263 307 158 307 253 324 6 353 337 337 326 329 327 325 321 317 311 305 298 293 283 277 275 268 257 251 249 248 247 238 238 218 235 255 192 195 167 166 165 163 164 166 166 166 166
341 9 15 316 323 305 301 237 237 224 329 320 329 337 325 326 327 322 318 314 311 304 300 293 287 281 272 262 256 252 250 242 242 238 230 216 234 242 323 194 171 164 166 162 166 167 167 169 164
346 9 336 283 279 279 257 269 270 102 250 341 331 331 328 323 323 319 315 314 309 305 298 293 286 275 273 262 255 249 246 238 233 234 230 221 227 222 251 224 180 164 166 164 167 167 170 170 167
32 338 2 326 321 312 289 304 275 347 333 334 332 329 324 321 320 316 315 312 307 300 298 290 281 272 266 259 248 245 241 236 230 225 224 218 217 211 230 272 198 164 167 166 169 167 170 167 167
327 1 351 270 259 301 307 292 0 324 324 330 330 326 321 320 316 313 311 307 300 299 295 288 280 271 260 258 243 239 238 232 224 218 221 210 206 192 202 225 191 175 168 168 169 166 168 166 163
251 316 330 320 295 283 284 282 276 282 324 329 320 318 317 312 310 308 307 304 300 302 297 289 278 265 255 252 242 231 233 229 224 221 215 202 209 185 199 279 190 191 169 169 170 166 171 167 167